Theta_e
338 336 333 327 318 320 314 315 319 317 321 330 330 328 329 331 330 330 351 348 339 343 349 358 364 364 363 364 362 361 361 360 359 356 355 353 353 353 353 355 356 353 353 352 351 350 350 349 349
329 327 327 323 315 311 311 317 316 319 323 330 332 331 329 333 341 346 347 344 341 344 348 353 363 364 363 362 362 361 361 359 358 357 355 354 353 353 353 355 355 353 352 352 351 350 349 349 348
329 328 319 319 317 310 311 316 318 325 327 329 327 331 333 335 344 346 352 343 343 345 345 358 363 364 364 361 361 361 360 360 358 357 356 354 353 354 356 356 354 353 352 351 350 349 347 345 344
324 323 321 315 312 314 315 318 321 327 331 333 330 326 342 348 344 348 350 342 342 343 346 360 363 363 364 361 360 360 359 359 359 358 357 355 354 354 355 353 353 352 350 349 348 347 346 346 346
323 319 313 313 311 315 318 319 321 324 328 330 332 327 336 349 347 347 345 341 340 342 351 355 363 363 363 361 360 360 360 360 360 359 357 357 356 355 355 353 352 351 349 348 348 347 346 346 347
316 318 311 309 311 314 318 320 320 325 327 330 329 329 338 348 344 345 344 342 341 342 352 354 362 362 362 362 361 361 361 361 361 360 358 358 357 356 355 354 353 351 350 350 348 348 348 348 348
314 315 311 312 311 312 315 320 321 324 325 327 331 327 341 345 345 346 346 343 342 344 349 351 354 360 361 362 362 362 361 361 361 361 360 358 357 357 357 356 355 355 354 353 352 351 351 350 350
317 315 311 312 310 311 316 320 322 325 325 339 336 326 332 347 347 347 347 344 343 344 348 349 351 352 353 356 360 361 361 361 360 360 359 358 357 357 357 357 357 356 355 355 354 353 353 353 353
319 311 310 312 310 312 317 316 320 327 328 332 335 338 343 351 347 345 345 344 343 343 345 348 348 349 348 348 354 358 358 358 359 358 358 357 352 355 357 356 357 357 357 356 356 357 357 357 357
314 313 313 315 315 313 315 316 317 318 322 327 330 333 340 349 349 342 341 342 343 343 344 347 348 349 349 348 354 350 349 349 349 350 354 353 351 353 353 358 358 356 356 358 358 357 358 359 352
315 311 315 313 315 317 315 315 317 316 315 320 320 328 334 344 349 344 342 342 343 346 346 347 349 352 349 347 354 347 347 346 347 349 352 352 348 351 349 353 353 351 355 351 354 354 353 349 350
310 314 313 314 315 315 314 317 315 315 317 319 319 325 330 337 343 342 341 342 342 345 348 349 351 353 353 349 350 350 348 348 347 348 352 351 347 348 348 344 346 349 350 351 351 349 350 349 348
310 312 313 315 315 316 316 314 314 314 319 322 323 326 327 333 341 342 344 344 347 346 349 350 353 357 356 356 350 351 351 349 350 349 351 348 346 346 346 346 345 344 346 347 347 349 350 351 350
312 312 313 315 315 315 313 314 314 317 320 320 322 323 326 329 339 342 344 347 348 349 350 351 353 359 359 358 358 354 354 353 351 350 349 352 349 350 345 345 344 345 345 347 348 348 350 352 351
314 310 312 312 313 313 315 310 311 320 319 319 320 322 325 330 333 338 348 349 353 354 354 353 355 358 361 360 360 359 355 353 351 351 354 353 354 353 354 344 343 343 349 348 350 351 353 351 351
310 310 306 312 313 314 313 306 316 320 319 319 321 324 323 329 336 342 346 350 353 354 355 355 352 355 360 360 359 357 356 356 353 351 352 354 354 354 357 347 344 344 345 343 347 349 349 349 347
309 304 305 309 314 313 312 308 317 320 320 319 322 327 328 338 344 348 350 350 353 353 356 356 355 352 358 361 359 359 361 357 355 353 352 355 354 352 354 347 346 353 344 344 344 344 350 348 348
305 304 307 307 311 312 311 310 317 319 319 320 323 328 333 335 337 343 348 351 353 351 351 355 356 358 357 357 360 357 356 356 356 353 352 354 352 351 352 350 352 351 349 349 347 356 352 352 348
309 307 306 309 313 311 310 311 314 319 319 320 324 328 332 337 339 342 342 347 348 349 350 353 354 357 356 353 352 352 350 351 352 351 352 351 350 350 353 350 352 355 355 356 360 356 357 354 353
308 306 306 309 311 311 310 309 313 318 319 321 324 327 330 333 333 335 338 339 341 344 347 349 353 357 356 352 353 352 354 356 362 355 356 356 356 357 358 359 355 346 345 344 333 327 327 335 347
307 306 306 307 310 312 309 307 311 317 320 325 325 328 330 331 332 333 335 338 341 341 343 344 346 353 357 359 355 354 358 358 359 358 349 347 346 348 351 350 347 344 339 337 334 329 328 323 327
305 310 309 308 307 302 311 300 308 314 317 321 324 327 328 330 332 334 336 338 339 340 342 342 343 345 348 352 354 351 351 348 349 344 342 344 345 345 346 346 347 347 341 337 338 338 331 330 327
307 311 310 308 306 306 306 303 307 313 313 317 322 325 328 331 332 332 334 335 334 336 337 339 341 343 345 346 347 343 344 341 341 339 339 341 341 340 338 340 342 344 345 345 345 341 340 337 335
312 309 309 309 306 299 305 304 304 309 312 317 322 324 327 329 331 332 333 333 331 331 331 331 333 335 337 339 340 340 337 337 335 335 335 334 334 333 333 335 336 336 335 337 340 341 340 340 341
309 307 299 298 298 297 306 303 306 312 315 317 322 324 326 328 329 329 328 327 328 328 328 329 331 330 331 330 330 331 332 332 330 329 327 328 327 326 329 330 332 331 332 333 333 335 335 339 340
307 307 300 294 296 300 308 301 305 314 318 320 324 325 326 327 328 327 326 327 326 327 328 328 328 327 328 328 328 328 328 324 323 326 323 322 321 323 328 328 328 327 329 330 333 328 333 334 336
307 304 309 303 304 300 303 308 313 317 318 319 321 324 324 326 327 326 326 327 327 327 327 327 328 327 327 326 327 327 326 327 326 329 331 324 327 324 326 326 325 325 324 326 331 325 330 332 331
309 311 303 304 295 294 300 302 304 311 314 317 319 322 324 326 327 326 327 327 328 328 327 327 326 326 326 325 325 324 326 327 327 328 326 326 327 326 324 323 324 323 323 324 327 327 324 327 328
307 305 307 307 304 297 296 300 310 313 315 317 319 321 324 325 326 326 326 327 328 328 326 326 326 326 324 325 325 325 324 325 326 325 325 325 325 324 322 321 320 320 320 322 323 324 324 326 327
311 308 308 301 300 302 301 300 313 314 316 318 318 320 323 326 326 326 326 326 326 326 325 324 324 323 324 325 325 324 325 325 325 325 324 324 322 322 320 319 318 317 317 320 319 319 319 322 321
Wind_Speed
13 14 9 9 9 9 12 14 6 8 17 9 8 12 8 10 16 8 7 7 17 19 19 17 14 14 14 14 14 13 12 12 12 13 14 14 14 14 13 12 12 13 14 13 12 12 11 11 11
14 12 10 8 10 10 12 8 12 10 10 6 10 3 12 15 14 11 11 11 18 18 16 17 14 14 14 14 14 14 13 12 12 13 13 14 14 14 13 12 12 13 12 11 11 10 8 7 5
15 11 11 11 6 7 11 10 7 10 8 5 14 9 7 9 11 7 15 17 19 17 16 18 15 14 14 14 13 13 13 12 13 12 12 13 13 12 11 10 11 11 10 10 10 9 7 5 4
7 6 8 12 7 9 9 7 3 11 8 3 7 11 12 9 4 6 15 19 18 18 18 19 16 15 14 14 13 12 12 12 12 11 12 12 12 11 10 10 10 10 9 9 8 6 5 4 3
9 10 14 11 4 8 7 4 3 10 14 11 3 16 12 8 10 14 17 16 16 17 19 18 14 14 14 15 15 14 13 13 12 12 12 11 10 10 9 9 9 9 7 7 6 5 3 2 2
9 7 14 7 6 4 7 4 5 9 7 10 9 16 13 11 14 16 16 15 15 15 19 17 15 13 13 13 13 13 13 12 11 11 11 11 10 9 9 8 7 6 6 4 3 3 2 1 1
13 13 17 4 9 5 6 2 5 10 10 10 7 19 19 14 14 16 14 14 14 15 18 15 15 14 12 12 12 12 11 11 10 10 9 10 10 8 7 7 6 5 5 4 3 3 3 3 4
9 13 18 8 9 11 4 4 2 11 6 14 9 8 17 16 14 14 14 14 14 14 18 17 15 16 14 13 13 12 12 11 10 10 10 10 8 8 8 6 8 7 6 6 6 6 6 6 8
10 12 14 12 3 8 4 3 6 4 6 5 10 21 16 15 14 14 13 13 14 13 15 16 16 16 15 15 13 11 11 11 10 10 10 9 10 10 12 9 13 10 8 9 8 8 9 12 14
11 13 15 10 6 3 4 6 4 6 4 9 7 9 8 12 12 14 13 13 14 15 15 15 15 16 14 12 15 12 11 10 10 10 11 10 11 9 5 9 12 8 8 9 10 10 12 14 12
14 17 5 5 3 7 7 7 2 7 7 10 10 10 8 8 10 12 13 13 13 14 11 12 10 11 12 10 11 7 8 8 8 10 9 10 7 6 7 6 8 8 13 9 12 11 11 14 8
16 14 4 3 3 9 9 6 9 8 11 8 2 4 5 6 10 11 10 12 12 12 11 10 14 9 9 7 7 9 7 8 7 9 10 7 5 5 6 6 8 9 7 10 9 8 6 4 6
14 12 9 7 10 10 3 12 10 4 7 6 3 5 3 5 7 7 6 4 7 8 11 11 12 11 8 6 7 6 5 6 7 7 11 9 7 6 6 7 7 6 7 8 8 8 5 7 9
13 11 10 14 12 9 11 11 5 6 1 3 3 6 8 5 6 6 3 7 5 2 7 8 11 13 11 9 7 6 6 6 6 6 7 11 7 6 7 7 8 8 8 8 8 8 7 7 9
6 11 14 13 11 11 9 14 13 6 2 2 1 0 4 5 4 3 9 4 8 6 5 8 9 13 11 12 10 8 7 9 7 8 8 7 9 8 7 8 7 8 8 10 9 8 7 8 10
15 15 15 18 14 9 9 15 13 7 5 3 2 6 2 3 6 4 2 5 4 2 7 6 9 13 12 10 10 9 9 8 8 8 8 11 11 10 8 8 8 8 8 8 8 9 9 9 8
13 14 18 12 12 12 14 15 14 7 6 3 2 7 8 15 10 7 7 3 5 0 5 6 7 9 13 10 9 9 8 8 7 8 8 11 11 12 10 9 8 6 7 8 8 9 9 9 9
16 17 10 8 13 9 14 12 13 8 8 6 4 7 9 10 10 8 6 5 4 2 1 4 5 7 7 8 8 8 8 8 8 8 8 9 9 10 9 8 8 7 7 9 10 8 9 10 10
11 6 9 11 9 12 16 14 14 11 10 9 7 5 8 11 11 10 9 9 9 8 3 4 6 4 5 7 8 8 8 8 8 8 8 7 7 7 6 7 7 7 7 7 10 11 8 9 11
14 14 14 11 9 10 17 19 9 13 13 5 7 7 6 8 8 8 8 8 6 6 8 7 6 0 6 7 7 6 4 2 1 6 9 7 5 4 3 5 7 7 6 7 9 10 8 9 19
16 17 14 14 15 11 16 17 18 13 9 9 6 7 6 6 9 8 7 7 7 7 7 6 7 8 7 9 2 3 5 2 2 4 6 6 6 7 4 3 6 3 3 5 3 6 4 6 12
18 16 15 11 14 14 23 14 21 21 17 15 11 10 10 10 7 7 8 10 10 10 8 9 7 5 6 10 4 2 0 2 5 6 6 3 5 6 7 7 4 4 4 7 2 5 4 4 7
16 15 12 16 13 16 15 12 14 22 20 17 13 10 9 11 11 10 9 10 11 11 10 10 10 10 9 9 11 7 10 7 6 5 3 4 6 9 9 7 8 6 5 5 2 2 3 4 5
13 14 10 14 14 16 20 18 14 15 23 23 18 14 12 11 12 10 10 10 10 11 11 11 11 10 10 9 9 8 7 5 3 3 2 3 3 4 8 6 6 6 6 7 7 4 5 3 5
17 12 12 15 15 16 20 21 14 2 11 15 20 17 15 12 13 13 12 11 9 10 10 10 10 9 9 10 10 10 9 8 5 2 5 3 4 5 7 7 7 7 7 8 8 7 10 10 5
16 17 14 18 15 17 14 10 11 6 9 11 16 16 14 13 13 13 13 11 10 8 8 9 9 9 8 9 8 6 4 6 8 7 6 7 7 7 9 9 9 10 11 10 7 7 4 9 7
20 21 20 23 20 18 14 11 9 14 15 15 17 15 14 13 12 13 12 9 9 7 7 7 7 7 7 7 7 7 7 8 7 7 8 7 7 7 8 9 9 10 11 11 11 4 8 6 8
24 17 14 12 19 20 17 18 13 21 19 18 18 17 15 14 13 13 12 10 9 8 7 7 8 7 7 7 7 6 5 5 6 5 6 6 7 8 9 9 9 9 9 11 10 8 6 9 8
17 17 18 15 15 14 17 15 10 16 15 17 16 16 15 16 15 14 13 12 9 8 11 8 6 8 8 7 6 5 4 4 5 5 6 8 8 9 10 10 11 11 10 8 9 10 8 6 8
21 24 22 16 23 15 19 18 3 3 12 20 18 17 16 16 17 16 14 15 12 9 7 8 7 9 8 6 4 4 3 3 4 5 6 8 9 10 11 11 12 11 11 10 8 9 11 8 8
Wind_Direction
258 238 270 271 244 172 210 99 70 61 80 57 98 32 53 35 9 41 130 146 131 127 131 141 135 136 137 131 128 124 122 121 119 117 114 114 115 115 113 112 112 109 110 107 101 96 92 87 86
296 290 252 274 259 345 73 62 72 61 68 89 79 238 59 72 27 96 142 149 134 130 138 137 137 134 133 131 128 128 128 128 128 127 125 123 125 126 125 122 121 118 115 113 109 103 98 96 92
267 272 278 243 229 197 92 61 63 96 110 137 98 37 35 26 61 106 100 142 129 139 149 127 137 133 134 133 132 132 133 135 136 133 131 130 131 130 130 129 127 125 121 121 117 117 109 102 89
285 224 236 261 66 71 38 59 86 130 132 77 140 80 99 44 48 73 146 143 138 142 139 133 137 136 136 137 136 136 138 142 143 142 141 140 138 140 142 142 139 136 135 131 126 117 112 105 89
244 261 260 245 58 74 63 36 219 183 144 136 358 106 79 77 95 126 143 148 155 144 121 143 137 139 145 150 149 149 152 154 156 154 152 150 146 148 151 151 152 146 145 139 133 125 121 105 73
265 257 256 192 123 132 73 1 188 270 133 139 142 118 95 125 121 135 147 154 156 141 127 136 139 144 148 155 154 155 156 157 160 159 160 159 161 162 160 157 157 151 152 147 149 148 159 208 299
262 283 273 164 108 142 29 2 270 216 222 183 117 97 107 113 128 142 154 158 148 143 134 149 157 153 152 155 158 158 159 162 163 162 164 168 174 175 175 168 169 169 172 180 196 211 231 256 261
290 288 280 266 158 100 62 88 223 251 297 61 334 107 125 116 143 153 161 163 156 156 144 155 161 164 168 165 166 164 165 169 168 170 171 177 183 190 195 189 193 192 203 211 218 231 238 247 252
251 267 258 207 232 118 116 21 69 333 346 334 50 50 68 125 155 165 168 172 167 164 160 161 170 168 180 163 164 166 173 175 177 182 187 184 211 184 177 197 155 188 215 226 228 231 245 239 235
235 245 262 32 53 353 68 302 14 239 171 140 130 94 99 145 173 177 178 178 180 172 175 171 182 165 186 161 146 186 179 191 197 194 182 222 228 187 238 160 163 196 226 244 237 233 238 244 251
235 253 357 133 15 310 311 253 231 273 226 76 43 107 138 170 185 200 187 179 182 171 181 182 176 166 192 177 153 187 181 195 196 206 199 217 227 209 208 178 189 214 210 234 207 216 232 237 246
244 244 326 217 155 259 258 328 253 243 44 37 310 37 130 183 195 215 192 171 172 166 179 178 159 172 225 182 180 184 203 185 194 195 198 237 236 232 253 229 213 192 192 221 220 240 221 304 266
233 246 221 254 239 242 253 239 266 192 33 286 273 153 235 196 224 204 173 158 121 167 162 180 167 171 197 248 179 227 208 190 207 189 188 224 216 230 230 260 265 256 227 227 241 231 249 234 225
204 246 224 232 233 202 239 226 195 102 260 246 271 258 183 217 202 176 157 126 127 201 155 189 182 161 195 208 239 192 229 232 216 231 206 196 233 227 237 226 240 253 252 254 247 250 257 236 268
233 243 229 230 228 235 236 249 215 82 184 162 224 37 329 198 182 193 145 153 158 171 229 179 190 171 195 195 198 216 220 209 231 216 198 215 211 234 258 247 247 245 251 258 271 278 276 258 263
234 226 244 199 212 203 230 245 125 169 193 147 82 59 95 125 135 71 77 96 96 198 170 209 195 175 186 214 197 220 210 227 221 217 209 199 220 226 222 238 253 251 263 269 269 269 259 267 270
207 231 218 139 198 206 211 233 131 182 181 164 130 71 42 79 67 43 1 73 101 133 154 207 225 219 181 205 223 222 231 225 225 221 216 202 212 222 216 246 250 252 263 274 271 264 264 266 265
210 218 188 223 173 215 217 238 143 181 189 187 111 93 84 81 63 60 29 50 114 163 145 235 217 231 223 201 213 231 220 225 230 227 220 214 219 223 221 234 245 259 253 247 249 260 273 297 300
308 266 255 198 170 207 228 233 178 167 212 185 135 100 92 77 53 47 38 26 31 4 304 231 202 178 221 221 214 216 224 219 223 228 228 220 224 239 220 251 239 233 265 295 318 308 294 279 282
249 250 246 253 213 211 246 237 235 162 219 192 168 137 113 108 81 68 69 65 58 52 34 22 349 45 220 222 238 273 212 201 23 76 64 55 30 26 359 3 23 18 11 18 56 53 353 344 322
237 247 243 246 192 218 263 256 221 171 187 163 169 131 126 114 117 112 94 89 99 87 81 82 52 17 7 341 283 239 43 72 98 120 93 35 16 9 8 92 129 255 206 263 176 143 82 326 329
249 223 260 262 238 239 210 248 215 182 192 190 171 174 151 138 120 107 109 99 88 101 88 74 55 30 29 357 52 320 202 12 40 45 70 38 16 5 10 343 1 250 277 265 14 106 117 146 257
246 276 211 245 243 255 233 238 272 175 188 191 180 170 157 149 145 144 123 102 91 92 87 77 66 75 67 45 23 28 63 78 68 60 59 357 339 346 341 337 317 316 267 264 318 61 238 190 201
239 246 237 242 247 242 242 254 244 189 192 194 164 169 162 161 147 142 126 128 117 102 94 85 80 75 67 65 68 75 66 59 49 23 324 336 352 21 26 18 20 27 8 5 8 354 306 296 263
222 216 225 220 225 244 241 235 234 215 174 178 156 165 168 168 151 150 151 139 127 117 116 111 95 90 89 87 89 90 94 103 104 70 70 35 52 31 37 13 12 12 7 5 9 355 11 314 305
220 220 246 249 243 249 193 219 240 139 120 131 153 159 164 177 160 162 152 146 143 125 118 120 115 108 104 101 98 89 82 72 90 56 41 42 31 33 18 17 10 10 357 357 358 351 352 323 315
233 212 237 264 277 279 271 200 129 147 158 159 159 162 174 180 171 165 151 159 138 133 121 116 115 116 110 112 100 89 82 59 54 44 4 26 31 15 15 15 8 1 359 347 341 339 335 319 328
232 259 227 233 256 266 273 274 267 169 175 171 170 176 179 179 181 176 162 166 167 151 138 140 161 149 136 133 135 104 86 57 38 38 35 27 14 10 1 360 358 358 352 348 342 333 337 335 309
220 241 252 272 267 258 254 248 7 154 203 182 188 180 183 185 185 186 175 175 173 183 173 165 182 160 159 138 120 106 81 62 48 30 16 9 358 356 348 345 338 335 337 347 333 323 293 296 319
234 253 224 234 239 250 265 275 23 226 168 179 192 186 188 195 190 185 182 180 193 183 173 159 180 165 146 145 147 85 78 56 38 17 9 356 347 339 335 331 328 323 321 319 315 312 317 310 328